#timestamp,LO_Frequency,Hit,StdDev 
1458316815.3,286047000.7,N
1458316835.1,286046996.5,N
1458316836.0,286046996.5,N
1458316855.8,286046995.2,N
1458316875.7,286046997.5,N
1458316895.5,286046995.3,N
1458316915.3,286046995.6,N
1458316935.2,286046997.5,N
1458316955.9,286046995.3,N
1458316975.7,286046994.4,N
1458316995.5,286046993.0,N
1458317015.4,286046990.2,N
1458317035.2,286046989.0,N
1458317055.0,286046993.2,N
1458317055.9,286046993.2,N
1458317075.8,286046990.1,N
1458317095.6,286046991.8,N
1458317115.4,286046994.1,N
1458317135.3,286046996.2,N
1458317155.1,286046995.3,N
1458317156.0,286046995.3,N
1458317175.8,286046998.4,N
1458317195.7,286047000.5,N
1458317215.5,286046999.1,N
1458317235.3,286046998.8,N
1458317255.2,286047002.8,N
1458317275.9,286047003.9,N
1458317295.7,286047004.1,N
1458317315.5,286047000.8,N
1458317335.4,286047001.5,N
1458317355.2,286047003.7,N
1458317375.0,286047002.7,N
1458317375.9,286047002.7,N
1458317395.8,286047003.0,N
1458317415.6,286047003.5,N
1458317435.4,286047006.1,N
1458317455.3,286047007.7,N
1458317475.1,286047008.0,N
1458317495.8,286047006.3,N
1458317515.7,286047006.7,N
1458317535.5,286047006.3,N
1458317555.3,286047008.8,N
1458317575.2,286047008.4,N
1458317595.9,286047007.7,N
1458317615.7,286047008.3,N
1458317635.6,286047008.6,N
1458317655.4,286047008.9,N
1458317675.2,286047008.6,N
1458317695.0,286047011.1,N
1458317695.9,286047011.1,N
1458317715.8,286047013.0,Y
1458317735.6,286047005.4,P
1458317755.4,286047004.9,P
1458317775.3,286047005.2,P
1458317795.1,286047006.7,Y
1458317815.9,286047002.5,P
1458317835.7,286047003.5,N
1458317855.5,286046999.7,N
1458317875.3,286047000.7,N
1458317895.2,286047000.3,N
1458317915.0,286046999.4,N
1458317915.9,286046999.4,N
1458317935.7,286046997.2,N
1458317955.6,286046997.4,N
1458317975.4,286046998.7,N
1458317995.2,286047000.7,N
1458318015.1,286046998.4,N
1458318016.0,286046998.4,N
1458318035.8,286046998.3,N
1458318055.6,286046995.0,N
1458318075.5,286046996.0,N
1458318095.3,286046994.5,N
1458318115.1,286046993.8,N
1458318135.9,286046994.5,N
1458318155.7,286046994.7,N
1458318175.5,286046991.7,N
1458318195.3,286046993.0,N
1458318215.2,286046991.9,N
1458318235.0,286046993.5,N
1458318235.9,286046993.5,N
1458318255.7,286046992.5,N
1458318275.6,286046991.7,N
1458318295.4,286046996.4,N
1458318315.2,286046993.9,N
1458318335.1,286046992.8,N
1458318336.0,286046992.8,N
1458318355.8,286046991.0,N
1458318375.6,286046990.7,Y
1458318395.5,286046990.4,P
1458318415.3,286046992.7,N
1458318435.1,286046988.9,P
1458318455.9,286046991.1,Y
1458318475.7,286046998.8,P
1458318495.5,286046997.1,N
1458318515.4,286046995.8,N
1458318535.2,286046999.6,N
1458318555.0,286046999.6,N
1458318555.9,286046999.6,N
1458318575.8,286047002.4,N
1458318595.6,286047000.0,N
1458318615.4,286046998.6,N
1458318635.3,286046998.4,N
1458318655.1,286046995.1,N
1458318656.0,286046995.1,N
1458318675.8,286046993.7,N
1458318695.6,286046997.4,N
1458318715.5,286046999.8,N
1458318735.3,286047001.1,N
1458318755.1,286047000.8,N
1458318775.9,286047000.0,N
1458318795.7,286047004.4,N
1458318815.5,286047003.3,N
1458318835.4,286047006.0,N
1458318855.2,286047003.6,N
1458318875.0,286047005.7,N
1458318875.9,286047005.7,N
1458318895.8,286047003.2,N
1458318915.6,286047004.3,N
1458318935.4,286047001.5,N
1458318955.3,286047004.2,N
1458318975.1,286047003.1,N
1458318976.0,286047003.1,N
1458318995.8,286047003.1,N
1458319015.7,286047004.9,N
1458319035.5,286047006.3,N
1458319055.3,286047005.3,N
1458319075.1,286047009.1,N
1458319095.9,286047005.0,N
1458319115.7,286047004.8,N
1458319135.5,286047006.8,N
1458319155.4,286047003.8,N
1458319175.2,286047005.1,N
1458319195.0,286047004.8,N
1458319195.9,286047004.8,N
1458319215.8,286047006.6,N
1458319235.6,286047011.2,Y
1458319255.4,286047010.1,P
1458319275.3,286047012.5,P
1458319295.1,286047015.2,P
1458319296.0,286047015.2,Y
1458319315.8,286047002.1,P
1458319335.7,286047002.4,N
1458319355.5,286047001.0,N
1458319375.3,286047001.1,N
1458319395.2,286047003.7,N
1458319415.9,286047004.0,N
1458319435.7,286047002.4,N
1458319455.6,286047001.7,N
1458319475.4,286047004.6,N
1458319495.2,286047006.8,N
1458319515.0,286047007.9,N
1458319516.0,286047007.9,N
1458319535.8,286047007.2,N
1458319555.6,286047005.6,N
1458319575.4,286047005.7,N
1458319595.3,286046999.7,N
1458319615.1,286047003.4,N
1458319635.8,286047002.8,N
1458319655.7,286047000.2,N
1458319675.5,286047000.3,N
1458319695.3,286047000.5,N
1458319715.2,286046999.9,N
1458319735.9,286046996.7,N
1458319755.7,286047000.4,N
1458319775.6,286046997.1,N
1458319795.4,286046997.2,N
1458319815.2,286047001.9,N
1458319835.0,286047002.0,N
1458319836.0,286047002.0,N
1458319855.8,286047001.8,N
1458319875.6,286047002.9,N
1458319895.4,286047002.9,N
1458319915.3,286047005.9,N
1458319935.1,286047005.4,N
1458319955.8,286047002.2,N
1458319975.7,286047003.8,N
1458319995.5,286047003.2,N
1458320015.3,286047005.8,N
1458320035.2,286047008.0,N
1458320055.9,286047009.5,N
1458320075.7,286047010.1,Y
1458320095.6,286047008.9,P
1458320115.4,286047006.2,N
1458320135.2,286047003.5,N
1458320155.1,286047003.1,N
1458320156.0,286047003.1,N
1458320175.8,286046997.2,N
1458320195.6,286046998.3,N
1458320215.5,286046999.0,N
1458320235.3,286046996.2,N
1458320255.1,286046994.5,N
1458320275.9,286046992.5,N
1458320295.7,286046993.0,N
1458320315.5,286046987.0,N
1458320335.3,286046989.9,N
1458320355.2,286046991.6,N
1458320375.0,286046989.4,N
1458320375.9,286046989.4,N
1458320395.7,286046989.2,N
